Satellite: RS-39 Catalog number: 38051 Epoch time: 14288.65876392 Element set: 41 Inclination: 051.5964 deg RA of node: 324.1908 deg Eccentricity: 0.0006422 Arg of perigee: 269.6897 deg Mean anomaly: 186.8903 deg Mean motion: 16.43533377 rev/day Decay rate: 7.0201582e-01 rev/day^2 Epoch rev: 15308 Checksum: 345
Satellite: E-STAR Catalog number: 38079 Epoch time: 14310.13888059 Element set: 55 Inclination: 069.4370 deg RA of node: 330.2235 deg Eccentricity: 0.0236496 Arg of perigee: 146.9837 deg Mean anomaly: 214.6369 deg Mean motion: 15.44798415 rev/day Decay rate: 2.39692e-03 rev/day^2 Epoch rev: 14505 Checksum: 335
Satellite: GOLIAT Catalog number: 38085 Epoch time: 14310.87308704 Element set: 512 Inclination: 069.4405 deg RA of node: 339.4452 deg Eccentricity: 0.0272130 Arg of perigee: 151.1285 deg Mean anomaly: 269.0743 deg Mean motion: 15.34927985 rev/day Decay rate: 1.98589e-03 rev/day^2 Epoch rev: 14487 Checksum: 328
Satellite: HORYU-2 Catalog number: 38340 Epoch time: 14310.15371535 Element set: 14 Inclination: 098.2837 deg RA of node: 269.9301 deg Eccentricity: 0.0013850 Arg of perigee: 086.2962 deg Mean anomaly: 273.9828 deg Mean motion: 14.73083989 rev/day Decay rate: 2.448e-05 rev/day^2 Epoch rev: 13268 Checksum: 319
Satellite: RS-40 Catalog number: 38735 Epoch time: 14310.80206288 Element set: 743 Inclination: 082.4766 deg RA of node: 198.6215 deg Eccentricity: 0.0016596 Arg of perigee: 307.9437 deg Mean anomaly: 052.0134 deg Mean motion: 12.42562869 rev/day Decay rate: 4.0e-07 rev/day^2 Epoch rev: 10329 Checksum: 302
Satellite: PROITERES Catalog number: 38756 Epoch time: 14310.84638065 Element set: 380 Inclination: 098.2231 deg RA of node: 041.4694 deg Eccentricity: 0.0011130 Arg of perigee: 292.1076 deg Mean anomaly: 067.8951 deg Mean motion: 14.75237231 rev/day Decay rate: 1.431e-05 rev/day^2 Epoch rev: 11621 Checksum: 274
Satellite: BEESAT-3 Catalog number: 39134 Epoch time: 14310.62013741 Element set: 761 Inclination: 064.8763 deg RA of node: 047.1967 deg Eccentricity: 0.0036351 Arg of perigee: 284.2002 deg Mean anomaly: 075.5579 deg Mean motion: 15.07298558 rev/day Decay rate: 1.4111e-04 rev/day^2 Epoch rev: 8510 Checksum: 292
Satellite: BEESAT-2 Catalog number: 39136 Epoch time: 14310.08747620 Element set: 743 Inclination: 064.8771 deg RA of node: 049.8573 deg Eccentricity: 0.0036470 Arg of perigee: 284.5901 deg Mean anomaly: 075.1176 deg Mean motion: 15.06403628 rev/day Decay rate: 9.295e-05 rev/day^2 Epoch rev: 8500 Checksum: 308
Satellite: LO-75 Catalog number: 39382 Epoch time: 14295.69194059 Element set: 487 Inclination: 040.4713 deg RA of node: 030.2705 deg Eccentricity: 0.0002289 Arg of perigee: 341.7175 deg Mean anomaly: 018.4586 deg Mean motion: 16.19795749 rev/day Decay rate: 7.301741e-02 rev/day^2 Epoch rev: 47082 Checksum: 345
Satellite: ZACUBE-1 Catalog number: 39417 Epoch time: 14310.44789012 Element set: 459 Inclination: 097.7607 deg RA of node: 016.1077 deg Eccentricity: 0.0062752 Arg of perigee: 140.6652 deg Mean anomaly: 219.9142 deg Mean motion: 14.78629417 rev/day Decay rate: 2.516e-05 rev/day^2 Epoch rev: 5171 Checksum: 305
Satellite: TRITON-1 Catalog number: 39427 Epoch time: 14309.78884620 Element set: 310 Inclination: 097.7485 deg RA of node: 008.3983 deg Eccentricity: 0.0118204 Arg of perigee: 159.2327 deg Mean anomaly: 201.3740 deg Mean motion: 14.65803138 rev/day Decay rate: 1.787e-05 rev/day^2 Epoch rev: 5113 Checksum: 304
Satellite: DELFIN3XT Catalog number: 39428 Epoch time: 14310.45156230 Element set: 314 Inclination: 097.7478 deg RA of node: 007.8301 deg Eccentricity: 0.0128007 Arg of perigee: 160.3782 deg Mean anomaly: 200.2413 deg Mean motion: 14.63976488 rev/day Decay rate: 3.355e-05 rev/day^2 Epoch rev: 5114 Checksum: 281
Satellite: GOMX-1 Catalog number: 39430 Epoch time: 14310.74109139 Element set: 960 Inclination: 097.7399 deg RA of node: 004.6304 deg Eccentricity: 0.0155697 Arg of perigee: 169.5806 deg Mean anomaly: 190.8687 deg Mean motion: 14.57232777 rev/day Decay rate: 2.440e-05 rev/day^2 Epoch rev: 5097 Checksum: 331
Satellite: MO-76 Catalog number: 39436 Epoch time: 14310.17611437 Element set: 396 Inclination: 097.7682 deg RA of node: 021.8313 deg Eccentricity: 0.0024594 Arg of perigee: 138.4601 deg Mean anomaly: 221.8494 deg Mean motion: 14.94329069 rev/day Decay rate: 2.1991e-04 rev/day^2 Epoch rev: 5204 Checksum: 317
Satellite: LO-74 Catalog number: 39440 Epoch time: 14309.47136756 Element set: 305 Inclination: 097.7569 deg RA of node: 012.3659 deg Eccentricity: 0.0084484 Arg of perigee: 149.4765 deg Mean anomaly: 211.1400 deg Mean motion: 14.73531180 rev/day Decay rate: 2.118e-05 rev/day^2 Epoch rev: 5138 Checksum: 308
Satellite: PUCPSAT-1 Catalog number: 39442 Epoch time: 14309.73873087 Element set: 305 Inclination: 097.7677 deg RA of node: 019.8052 deg Eccentricity: 0.0035221 Arg of perigee: 138.6991 deg Mean anomaly: 221.6899 deg Mean motion: 14.86871152 rev/day Decay rate: 4.538e-05 rev/day^2 Epoch rev: 5065 Checksum: 334
Satellite: SHINAISAT Catalog number: 39572 Epoch time: 14310.51361649 Element set: 389 Inclination: 064.9976 deg RA of node: 262.1692 deg Eccentricity: 0.0014296 Arg of perigee: 275.4177 deg Mean anomaly: 084.5360 deg Mean motion: 15.99711902 rev/day Decay rate: 3.77997e-03 rev/day^2 Epoch rev: 3956 Checksum: 355
Satellite: TEIKYOSAT Catalog number: 39576 Epoch time: 14297.85867254 Element set: 437 Inclination: 064.9818 deg RA of node: 300.5833 deg Eccentricity: 0.0008491 Arg of perigee: 317.3597 deg Mean anomaly: 044.3862 deg Mean motion: 16.45008906 rev/day Decay rate: 9.345816e-02 rev/day^2 Epoch rev: 3769 Checksum: 359
Satellite: CO-77 Catalog number: 39577 Epoch time: 14244.78324653 Element set: 379 Inclination: 064.9920 deg RA of node: 123.7668 deg Eccentricity: 0.0014904 Arg of perigee: 269.7208 deg Mean anomaly: 091.1897 deg Mean motion: 16.43552757 rev/day Decay rate: 1.0543803e-01 rev/day^2 Epoch rev: 2938 Checksum: 363
Satellite: SPROUT Catalog number: 39770 Epoch time: 14309.85007181 Element set: 183 Inclination: 097.8722 deg RA of node: 044.8606 deg Eccentricity: 0.0009572 Arg of perigee: 202.9576 deg Mean anomaly: 157.1208 deg Mean motion: 14.82977193 rev/day Decay rate: 2.293e-05 rev/day^2 Epoch rev: 2452 Checksum: 314
Satellite: POPSAT-HIP1 Catalog number: 40028 Epoch time: 14310.77198519 Element set: 430 Inclination: 097.9698 deg RA of node: 205.6682 deg Eccentricity: 0.0013881 Arg of perigee: 183.4106 deg Mean anomaly: 176.7022 deg Mean motion: 14.85633186 rev/day Decay rate: 3.379e-05 rev/day^2 Epoch rev: 2074 Checksum: 313
Satellite: EO-80 Catalog number: 40032 Epoch time: 14310.65903568 Element set: 418 Inclination: 097.9690 deg RA of node: 205.4387 deg Eccentricity: 0.0012032 Arg of perigee: 179.9728 deg Mean anomaly: 180.1493 deg Mean motion: 14.85386718 rev/day Decay rate: 3.079e-05 rev/day^2 Epoch rev: 2073 Checksum: 318
Satellite: VELOX-1 Catalog number: 40057 Epoch time: 14310.80000083 Element set: 417 Inclination: 098.2391 deg RA of node: 020.2039 deg Eccentricity: 0.0010669 Arg of perigee: 224.9104 deg Mean anomaly: 135.1227 deg Mean motion: 14.74485452 rev/day Decay rate: 3.287e-05 rev/day^2 Epoch rev: 1909 Checksum: 262
Satellite: DAURIA DX 1 Catalog number: 40071 Epoch time: 14310.78097840 Element set: 389 Inclination: 098.3870 deg RA of node: 007.7910 deg Eccentricity: 0.0007449 Arg of perigee: 230.5129 deg Mean anomaly: 129.5409 deg Mean motion: 14.79748498 rev/day Decay rate: 1.503e-05 rev/day^2 Epoch rev: 1789 Checksum: 323
Satellite: UKUBE-1 Catalog number: 40074 Epoch time: 14310.77121191 Element set: 391 Inclination: 098.3875 deg RA of node: 007.9798 deg Eccentricity: 0.0003702 Arg of perigee: 236.0134 deg Mean anomaly: 124.0700 deg Mean motion: 14.80859758 rev/day Decay rate: 3.144e-05 rev/day^2 Epoch rev: 1790 Checksum: 285
Satellite: CHASQUI-1 Catalog number: 40117 Epoch time: 14310.69283273 Element set: 256 Inclination: 051.6422 deg RA of node: 110.3105 deg Eccentricity: 0.0006623 Arg of perigee: 263.2485 deg Mean anomaly: 194.0704 deg Mean motion: 15.62871441 rev/day Decay rate: 1.25244e-03 rev/day^2 Epoch rev: 1244 Checksum: 254
/EX